Find Kosmos-706

NORAD ID: 7625 Int'l Des: 1975-007 Owner: PVO Country: SU operational
MEOELLIPTICALHEO_ELLIPTICALSEMI_SYNCMOLNIYA

Live Position

Loading 3D Globe...

About Kosmos-706

Description loading...

Upcoming Passes

Passes for default location (London). Set your location on the main map for personalized predictions.

Altitude History

Loading altitude history...

Two-Line Element Set

1 07625U 75007A 26099.02751943 -.00000637 00000-0 00000-0 0 9993
2 07625 63.9507 161.0179 6863543 3.1555 359.7390 2.00636963235057
Epoch: Apr 9, 2026 • Age: 190 hours

Current Status

Altitude 18823.5 km
Velocity 4.08 km/s
Sub-Earth Point -46.03°S, 172.46°W
Type other

Most Searched